Laramie, WY

11:41 AM MDT on September 22, 2017 (GMT -0600)
Laramie Regional

Weather History for KLAR - December, 2014

Change the Weather History Date:

Sunday, December 14, 2014

  Actual Average Record
Temperature  
Mean Temperature 23 °F 21 °F  
Max Temperature 29 °F 32 °F 55 °F (1969)
Min Temperature 17 °F 10 °F -18 °F (1992)
Degree Days  
Heating Degree Days 42 44  
Month to date heating degree days 418 608  
Since 1 July heating degree days 2546 2920  
Cooling Degree Days 0 0  
Month to date cooling degree days 0 0  
Year to date cooling degree days 67 67  
Moisture  
Dew Point 23 °F    
Average Humidity 92    
Maximum Humidity 100    
Minimum Humidity 84    
Precipitation  
Precipitation 0.03 in 0.01 in 0.18 in (2014)
Month to date precipitation 0.03 0.16  
Year to date precipitation 13.73 10.76  
Sea Level Pressure  
Sea Level Pressure 29.83 in    
Wind  
Wind Speed 12 mph (NNW)    
Max Wind Speed 25 mph    
Max Gust Speed 33 mph    
Visibility 3 miles    
Events Fog , Snow    
T = Trace of Precipitation, MM = Missing Value Source: NWS Daily Summary

Daily Weather History Graph

Daily Weather History Graph

Search for Another Location

Airport or City:

Trip Planner

Search our weather history database for the weather conditions in past years. The results will help you decide how hot, cold, wet, or windy it might be!

Date:

Astronomy

Dec. 14, 2014 Rise Set
Actual Time 7:20 AM MST 4:34 PM MST
Civil Twilight 6:49 AM MST 5:05 PM MST
Nautical Twilight 6:14 AM MST 5:40 PM MST
Astronomical Twilight 5:41 AM MST 6:13 PM MST
Moon No Moon Rise 12:09 PM MST (12/14)
Length of Visible Light 10h 15m
Length of Day
9h 13m
Waning Gibbous, 48% of the Moon is Illuminated
Dec 14
Waning Gibbous
Dec 21
New
Dec 28
First Quarter
Jan 4
Full
Jan 13
Last Quarter

Hourly Weather History & Observations

Time (MST) Temp. Windchill Dew Point Humidity Pressure Visibility Wind Dir Wind Speed Gust Speed Precip Events Conditions
12:10 AM 19.0 °F 12.3 °F 17.1 °F 92% 29.81 in 2.0 mi West 4.6 mph - N/A   Partly Cloudy
12:13 AM 19.0 °F 12.3 °F 18.0 °F 96% 29.81 in 1.0 mi West 4.6 mph - N/A   Mist
12:16 AM 19.9 °F 13.4 °F 18.0 °F 92% 29.81 in 0.5 mi West 4.6 mph - N/A Fog Light Freezing Fog
12:53 AM 19.0 °F - 17.1 °F 92% 29.75 in 0.5 mi Calm Calm - N/A Fog Light Freezing Fog
1:04 AM 17.1 °F 11.7 °F 15.1 °F 92% 29.79 in 0.8 mi West 3.5 mph - N/A   Partly Cloudy
1:20 AM 19.0 °F - 16.0 °F 88% 29.79 in 0.2 mi Calm Calm - N/A Fog Light Freezing Fog
1:53 AM 21.0 °F 16.2 °F 19.9 °F 96% 29.74 in 1.0 mi WNW 3.5 mph - N/A   Mostly Cloudy
1:57 AM 21.9 °F 15.7 °F 19.9 °F 92% 29.79 in 4.0 mi NW 4.6 mph - N/A   Overcast
2:53 AM 24.1 °F 18.2 °F 23.0 °F 96% 29.70 in 7.0 mi NNW 4.6 mph - 0.00 in Snow Light Snow
3:53 AM 26.1 °F - 25.0 °F 96% 29.70 in 3.0 mi Calm Calm - 0.00 in Snow Light Snow
4:27 AM 26.1 °F - 25.0 °F 96% 29.77 in 4.0 mi Calm Calm - 0.00 in Snow Light Snow
4:53 AM 26.1 °F - 26.1 °F 100% 29.74 in 4.0 mi Calm Calm - 0.00 in Snow Light Snow
5:24 AM 27.0 °F - 26.1 °F 96% 29.77 in 2.0 mi Calm Calm - 0.00 in Snow Light Snow
5:41 AM 26.1 °F - 25.0 °F 96% 29.77 in 3.0 mi Calm Calm - 0.00 in Snow Light Snow
5:53 AM 26.1 °F - 25.0 °F 96% 29.76 in 4.0 mi Calm Calm - 0.00 in   Overcast
6:53 AM 28.0 °F 19.3 °F 27.0 °F 96% 29.78 in 1.8 mi NNW 9.2 mph - 0.00 in Snow Light Snow
7:17 AM 28.0 °F 18.6 °F 27.0 °F 96% 29.77 in 1.0 mi North 10.4 mph - 0.01 in Snow Light Snow
7:25 AM 28.0 °F 18.6 °F 27.0 °F 96% 29.77 in 1.0 mi North 10.4 mph - 0.01 in Snow Light Snow
7:53 AM 28.0 °F 19.3 °F 27.0 °F 96% 29.80 in 1.2 mi North 9.2 mph - 0.01 in Snow Light Snow
8:26 AM 28.0 °F 18.6 °F 27.0 °F 96% 29.78 in 2.0 mi North 10.4 mph - 0.01 in Snow Light Snow
8:33 AM 28.0 °F 18.6 °F 27.0 °F 96% 29.78 in 1.2 mi NNW 10.4 mph - 0.01 in Snow Light Snow
8:53 AM 28.0 °F 18.1 °F 27.0 °F 96% 29.81 in 1.8 mi NNW 11.5 mph - 0.01 in Snow Light Snow
9:00 AM 28.0 °F 17.5 °F 27.0 °F 96% 29.78 in 3.0 mi NNW 12.7 mph - 0.00 in Snow Light Snow
9:28 AM 28.0 °F 19.3 °F 27.0 °F 96% 29.79 in 1.8 mi NNW 9.2 mph - 0.00 in Snow Light Snow
9:53 AM 28.9 °F 19.2 °F 27.0 °F 92% 29.84 in 1.5 mi NNW 11.5 mph - 0.00 in Snow Light Snow
10:38 AM 28.9 °F 18.6 °F 27.0 °F 92% 29.80 in 2.5 mi NNW 12.7 mph - 0.00 in Snow Light Snow
10:53 AM 28.9 °F 19.8 °F 27.0 °F 92% 29.83 in 2.0 mi NNW 10.4 mph - 0.00 in Snow Light Snow
11:01 AM 28.0 °F 17.0 °F 27.0 °F 96% 29.80 in 1.0 mi NNW 13.8 mph - 0.00 in Snow Light Snow
11:53 AM 28.0 °F 15.7 °F 26.1 °F 92% 29.86 in 1.0 mi NNW 17.3 mph - 0.00 in Snow Light Snow
12:09 PM 28.0 °F 15.7 °F 26.1 °F 92% 29.79 in 2.5 mi NW 17.3 mph - 0.00 in Snow Light Snow
12:24 PM 28.0 °F 15.3 °F 25.0 °F 88% 29.78 in 5.0 mi NNW 18.4 mph - 0.00 in Snow Light Snow
12:49 PM 28.4 °F 15.4 °F 24.8 °F 86% 29.79 in 7.0 mi NNW 19.6 mph 26.5 mph 0.00 in   Overcast
12:53 PM 27.0 °F 12.8 °F 25.0 °F 92% 29.86 in 8.0 mi NW 21.9 mph 26.5 mph 0.00 in   Overcast
1:27 PM 27.0 °F 13.5 °F 24.1 °F 89% 29.80 in 2.5 mi NNW 19.6 mph 26.5 mph 0.00 in Snow Light Snow
1:39 PM 27.0 °F 12.8 °F 25.0 °F 92% 29.80 in 1.2 mi NNW 21.9 mph 27.6 mph 0.00 in Snow Light Snow
1:49 PM 26.6 °F 13.4 °F 24.8 °F 93% 29.80 in 1.8 mi NNW 18.4 mph 24.2 mph 0.00 in Snow Light Snow
1:53 PM 27.0 °F 13.2 °F 24.1 °F 89% 29.87 in 2.0 mi NNW 20.7 mph 27.6 mph 0.00 in Snow Light Snow
1:59 PM 27.0 °F 13.5 °F 24.1 °F 89% 29.80 in 4.0 mi NNW 19.6 mph 27.6 mph 0.00 in Snow Light Snow
2:07 PM 27.0 °F 13.9 °F 24.1 °F 89% 29.80 in 2.5 mi NW 18.4 mph - 0.01 in Snow Light Snow
2:28 PM 27.0 °F 13.9 °F 24.1 °F 89% 29.81 in 1.0 mi NNW 18.4 mph - 0.01 in Snow Light Snow
2:38 PM 26.1 °F 12.3 °F 24.1 °F 92% 29.82 in 0.8 mi NW 19.6 mph - 0.01 in Snow Light Snow
2:53 PM 26.1 °F 11.6 °F 23.0 °F 88% 29.88 in 1.0 mi NNW 21.9 mph - 0.01 in Snow Light Snow
3:00 PM 26.1 °F 12.0 °F 23.0 °F 88% 29.83 in 0.5 mi NW 20.7 mph - 0.00 in Fog , Snow Snow
3:35 PM 25.0 °F 10.2 °F 23.0 °F 92% 29.84 in 0.8 mi NW 21.9 mph - 0.00 in Snow Light Snow
3:42 PM 25.0 °F 10.9 °F 21.9 °F 88% 29.84 in 0.5 mi NW 19.6 mph - 0.00 in Fog , Snow Light Snow
3:45 PM 25.0 °F 11.7 °F 21.9 °F 88% 29.84 in 0.8 mi NW 17.3 mph - 0.00 in Snow Light Snow
3:53 PM 25.0 °F 10.9 °F 21.9 °F 88% 29.89 in 0.8 mi NW 19.6 mph 27.6 mph 0.00 in Snow Light Snow
4:02 PM 25.0 °F 11.3 °F 21.9 °F 88% 29.85 in 1.0 mi NW 18.4 mph - 0.00 in Snow Light Snow
4:21 PM 24.1 °F 9.4 °F 21.9 °F 91% 29.85 in 3.0 mi NNW 20.7 mph - 0.00 in Snow Light Snow
4:53 PM 24.1 °F 12.0 °F 21.9 °F 91% 29.92 in 5.0 mi NNW 13.8 mph - 0.00 in Snow Light Snow
5:12 PM 24.1 °F 12.0 °F 21.0 °F 88% 29.86 in 5.0 mi NNW 13.8 mph 23.0 mph 0.00 in Snow Light Snow
5:44 PM 24.1 °F 11.5 °F 21.0 °F 88% 29.87 in 6.0 mi NNW 15.0 mph 21.9 mph 0.00 in   Overcast
5:53 PM 24.1 °F 11.0 °F 21.0 °F 88% 29.93 in 9.0 mi NNW 16.1 mph 23.0 mph 0.00 in   Overcast
6:24 PM 24.1 °F 12.5 °F 21.0 °F 88% 29.87 in 10.0 mi NNW 12.7 mph - N/A   Overcast
6:53 PM 23.0 °F 12.4 °F 21.0 °F 92% 29.93 in 10.0 mi NNW 10.4 mph - N/A   Overcast
7:21 PM 24.1 °F 12.0 °F 21.0 °F 88% 29.88 in 1.8 mi NNW 13.8 mph - 0.00 in Snow Light Snow
7:53 PM 24.1 °F 9.4 °F 21.0 °F 88% 29.93 in 1.2 mi NNW 20.7 mph 31.1 mph 0.00 in Snow Light Snow
8:37 PM 23.0 °F 9.6 °F 21.0 °F 92% 29.88 in 1.0 mi NNW 16.1 mph 27.6 mph 0.00 in Snow Light Snow
8:53 PM 23.0 °F 10.1 °F 21.0 °F 92% 29.94 in 1.0 mi NNW 15.0 mph 23.0 mph 0.00 in Snow Light Snow
9:31 PM 23.0 °F 11.1 °F 21.0 °F 92% 29.89 in 2.0 mi NNW 12.7 mph - 0.00 in Snow Light Snow
9:53 PM 24.1 °F 12.0 °F 21.0 °F 88% 29.93 in 3.0 mi North 13.8 mph - 0.00 in Snow Light Snow
10:08 PM 24.1 °F 11.5 °F 21.0 °F 88% 29.89 in 2.0 mi NNW 15.0 mph - 0.00 in Snow Light Snow
10:41 PM 23.0 °F 10.1 °F 21.0 °F 92% 29.90 in 4.0 mi NW 15.0 mph - 0.00 in Snow Light Snow
10:53 PM 23.0 °F 11.7 °F 21.0 °F 92% 29.95 in 10.0 mi WNW 11.5 mph - 0.00 in   Overcast
11:02 PM 23.0 °F 11.7 °F 21.0 °F 92% 29.90 in 10.0 mi WNW 11.5 mph - N/A   Overcast
11:09 PM 23.0 °F 11.1 °F 21.0 °F 92% 29.89 in 10.0 mi NW 12.7 mph 20.7 mph N/A   Overcast
11:53 PM 23.0 °F 11.7 °F 19.9 °F 88% 29.94 in 10.0 mi NNW 11.5 mph - N/A   Overcast